EW8476 Weather Reports


Display with metric or nautical units.
time (UTC)temp
F
wind
direction
speed
MPH
gust
MPH
rain 1hr
in
rain 24hr
in
rain mn
in
humidity
%
barometer
mb
20260504050545 59 169 5.0 11.0 0.00 0.00 0.00 66 941.0
20260504045534 60 173 6.0 11.0 0.00 0.00 0.00 64 941.0
20260504044537 60 167 4.0 9.0 0.00 0.00 0.00 63 941.1
20260504043604 60 167 6.0 9.0 0.00 0.00 0.00 64 941.0
20260504042601 60 170 7.0 10.0 0.00 0.00 0.00 63 941.1
20260504041539 61 173 5.0 9.0 0.00 0.00 0.00 61 941.4
20260504040603 61 170 5.0 8.0 0.00 0.00 0.00 61 941.3
20260504035613 61 175 4.0 8.0 0.00 0.00 0.00 64 941.2
20260504034556 60 174 4.0 9.0 0.00 0.00 0.00 64 941.3
20260504033542 60 187 4.0 8.0 0.00 0.00 0.00 63 941.3
20260504032533 61 173 4.0 8.0 0.00 0.00 0.00 62 941.3
20260504031519 61 179 5.0 7.0 0.00 0.00 0.00 62 941.3
20260504030616 61 175 4.0 6.0 0.00 0.00 0.00 62 941.2
20260504025545 61 174 3.0 6.0 0.00 0.00 0.00 60 941.3
20260504024534 62 173 3.0 6.0 0.00 0.00 0.00 59 941.2
20260504023524 62 175 3.0 5.0 0.00 0.00 0.00 58 941.4
20260504022709 62 183 5.0 7.0 0.00 0.00 0.00 57 941.3
20260504021552 63 175 5.0 8.0 0.00 0.00 0.00 56 941.3
20260504020543 63 179 5.0 9.0 0.00 0.00 0.00 55 941.1
20260504015525 64 182 4.0 7.0 0.00 0.00 0.00 54 940.9
20260504014629 64 175 2.0 5.0 0.00 0.00 0.00 53 941.1
20260504013550 65 200 5.0 9.0 0.00 0.00 0.00 50 941.0
20260504012529 66 191 5.0 8.0 0.00 0.00 0.00 49 941.0
20260504011520 66 195 6.0 11.0 0.00 0.00 0.00 48 940.9
20260504010606 66 199 5.0 8.0 0.00 0.00 0.00 48 940.7
20260504005547 67 192 6.0 10.0 0.00 0.00 0.00 45 940.8
20260504004534 68 188 7.0 11.0 0.00 0.00 0.00 44 940.8
20260504003617 68 192 6.0 10.0 0.00 0.00 0.00 45 940.5
20260504002602 69 178 6.0 10.0 0.00 0.00 0.00 43 940.7
20260504001556 70 182 6.0 11.0 0.00 0.00 0.00 42 940.8
20260504000530 70 180 8.0 14.0 0.00 0.00 0.00 42 941.0
20260503235538 70 195 9.0 15.0 0.00 0.00 0.00 40 941.2
20260503234606 70 203 9.0 15.0 0.00 0.00 0.00 40 941.4
20260503233553 71 189 8.0 14.0 0.00 0.00 0.00 39 941.5
20260503232539 71 180 8.0 13.0 0.00 0.00 0.00 37 941.5
20260503231521 71 191 9.0 15.0 0.00 0.00 0.00 37 941.6
20260503230609 71 192 4.0 11.0 0.00 0.00 0.00 38 941.7
20260503225657 72 206 11.0 18.0 0.00 0.00 0.00 36 941.8
20260503224553 72 186 6.0 13.0 0.00 0.00 0.00 37 941.6
20260503223526 72 176 8.0 19.0 0.00 0.00 0.00 35 941.6
20260503222515 72 167 8.0 13.0 0.00 0.00 0.00 36 941.6
20260503220557 71 195 12.0 19.0 0.00 0.00 0.00 37 941.9
20260503215527 71 193 9.0 16.0 0.00 0.00 0.00 35 942.0
20260503214618 73 181 9.0 16.0 0.00 0.00 0.00 35 942.4
20260503213555 71 186 9.0 18.0 0.00 0.00 0.00 35 942.4
20260503212540 72 174 9.0 18.0 0.00 0.00 0.00 35 942.4
20260503211540 72 173 9.0 14.0 0.00 0.00 0.00 37 942.9
20260503210629 72 161 7.0 15.0 0.00 0.00 0.00 36 943.1
20260503205618 72 173 9.0 20.0 0.00 0.00 0.00 38 943.1
20260503204547 72 203 13.0 18.0 0.00 0.00 0.00 35 943.4
20260503203545 72 195 10.0 16.0 0.00 0.00 0.00 38 943.6
20260503202609 71 218 8.0 14.0 0.00 0.00 0.00 39 943.7
20260503201610 71 196 8.0 18.0 0.00 0.00 0.00 39 943.8
20260503200536 71 203 10.0 18.0 0.00 0.00 0.00 37 944.1
20260503195625 70 203 11.0 18.0 0.00 0.00 0.00 39 944.2
20260503194622 71 200 11.0 17.0 0.00 0.00 0.00 36 944.5
20260503193612 71 180 5.0 11.0 0.00 0.00 0.00 40 944.5
20260503192540 71 200 7.0 19.0 0.00 0.00 0.00 39 944.8
20260503191526 70 202 9.0 13.0 0.00 0.00 0.00 40 944.8
20260503190558 70 165 6.0 17.0 0.00 0.00 0.00 40 944.9
20260503185547 70 165 5.0 13.0 0.00 0.00 0.00 41 945.1
20260503184523 70 164 7.0 16.0 0.00 0.00 0.00 42 945.1
20260503183609 70 181 5.0 16.0 0.00 0.00 0.00 40 945.2
20260503182554 70 162 8.0 13.0 0.00 0.00 0.00 41 945.5
20260503181600 70 179 6.0 18.0 0.00 0.00 0.00 44 945.7
20260503180521 69 186 7.0 15.0 0.00 0.00 0.00 43 945.8
20260503175626 68 191 6.0 11.0 0.00 0.00 0.00 41 945.9
20260503174547 68 177 7.0 18.0 0.00 0.00 0.00 41 946.0
20260503173549 69 124 4.0 14.0 0.00 0.00 0.00 42 946.5
20260503172515 68 167 6.0 17.0 0.00 0.00 0.00 42 946.5
20260503171623 68 158 5.0 15.0 0.00 0.00 0.00 42 946.7
20260503170545 68 171 9.0 14.0 0.00 0.00 0.00 42 946.9
20260503150610 63 192 8.0 15.0 0.00 0.00 0.00 58 946.9
20260503130608 55 184 5.0 8.0 0.00 0.00 0.00 74 945.9
20260503110607 54 222 6.0 11.0 0.00 0.00 0.00 70 945.1
20260503081544 53 190 4.0 4.0 0.00 0.00 0.00 69 944.9
20260503080550 54 166 3.0 5.0 0.00 0.00 0.00 67 944.9
20260503072559 55 193 5.0 7.0 0.00 0.00 0.00 64 945.3